Weather in Krasnaya Sibir'

Russia / Novosibirsk Oblast     54°19′02″N   80°29′21″E
temp.,
°C
wind,
m/s
gust,
m/s
humid.,
%
clouds,
%
prec.,
mm/h
press.,
hPa
HPBL,
m
8 august, mon
mon801:00+14nne379796 0.1 1009170
04:00+13nne359537 0.0 100991
07:00+12nne369827 0.0 1010178
10:00+19nne44705 0.0 1010539
13:00+24nne32485 0.0 10091247
16:00+27nw223680 0.0 10092582
19:00+25ne554875 0.0 1009916
22:00+16ne4893100 1.1 1010176
9 august, tue
tue901:00+14ne359666 2.1 101096
04:00+14ne369699 2.4 1010140
07:00+14ne379626 2.9 1010165
10:00+19ne457537 0.5 1010448
13:00+26ne4444100 0.5 10101361
16:00+27nne443599 0.0 10092375
19:00+27ne553690 0.0 10082022
22:00+21ne4105497 0.1 1009233
10 august, wed
wed1001:00+18ne4127090 0.1 1009268
04:00+16ne4118091 0.0 1009217
07:00+15ne4118096 0.0 1009257
10:00+23ne794989 0.0 1009726
13:00+27ne773364 0.0 10091908
16:00+29ne662915 0.0 10082845
19:00+27ne773422 0.0 10081888
22:00+20ne4115412 0.0 1009221
11 august, thu
thu1101:00+17ne4107578 0.0 1009184
04:00+16ne398740 0.0 1009164
07:00+16ne3784100 0.0 1009158
10:00+22ne4653100 0.0 1010603
13:00+27ene453695 0.0 10092249
16:00+27ne6640100 0.0 10091576
19:00+26nne564055 0.0 10091798
22:00+19nne5108322 0.7 1010205
12 august, fri
fri1201:00+16nne499897 1.0 1011268
04:00+16nne389963 0.0 1011234
07:00+15nne369721 0.0 1012179
10:00+20ne44730 0.0 1012441
13:00+25ne33492 0.0 10111293
16:00+28nne32374 0.0 10092099
19:00+28n323645 0.0 10092167
22:00+23ene3649100 0.0 1009154